Starlink 34187

operational
NORAD ID: 63956 Int'l Des: 2025-099 Owner: SPXS Country: US Constellation: starlink
LEOCIRCULAR

About Starlink 34187

Description loading...

Live Position

Loading 3D Globe...

Upcoming Passes

Altitude History

Altitude vs Time

uPlot chart will show altitude changes over time

Two-Line Element Set

1 63956U 25099E 26061.43363655 .00044435 00000-0 16132-2 0 9999
2 63956 42.9989 217.4575 0001606 270.1091 89.9576 15.27607491 46226
Epoch: Mar 2, 2026 • Age: 26 hours

Current Status

Altitude 483.5 km
Velocity 7.63 km/s
Sub-Earth Point 26.83°N, 51.3°E
Launch Date May 13, 2025
Age 0.8 years
Type internet

Technical Details

Classification Payload
Mass 575.00 kg
Dry Mass 530.00 kg
Total Mass 575.00 kg
Length 0.30 m
Diameter 4.10 m
Span 29.00 m
Shape Box + pan
Manufacturer SPXS
Bus Type Starlink V2MO
Phase Status In Orbit
Owner/State SPXS/US

Large Constellations

Loading constellations...